Time,TemperatureF,DewpointF,PressureIn,WindDirection,WindDirectionDegrees,WindSpeedMPH,WindSpeedGustMPH,Humidity,HourlyPrecipIn,Conditions,Clouds,dailyrainin,SoftwareType,DateUTC
2013-01-19 00:01:00,41.8,33.8,29.85,SW,223,9.0,17.0,73,0.00,CLR,OVC,0.00,WeatherDisplay:10.37,2013-01-19 05:01:00,
2013-01-19 00:05:00,41.3,30.8,29.88,SW,226,12.0,22.0,66,0.00,BKN,OVC,0.00,WeatherDisplay:10.37,2013-01-19 05:05:00,
2013-01-19 00:06:00,41.9,33.9,29.85,SSW,212,12.0,17.0,73,0.00,CLR,OVC,0.00,WeatherDisplay:10.37,2013-01-19 05:06:00,
2013-01-19 00:10:00,41.2,30.7,29.88,SW,232,8.0,22.0,66,0.00,BKN,OVC,0.00,WeatherDisplay:10.37,2013-01-19 05:10:00,
2013-01-19 00:11:00,42.0,34.0,29.84,SSW,206,5.0,12.0,73,0.00,CLR,OVC,0.00,WeatherDisplay:10.37,2013-01-19 05:11:00,
2013-01-19 00:15:00,41.3,31.2,29.88,SW,226,13.0,18.0,67,0.00,BKN,OVC,0.00,WeatherDisplay:10.37,2013-01-19 05:15:00,
2013-01-19 00:16:00,42.1,33.7,29.84,SSW,202,7.0,12.0,72,0.00,CLR,OVC,0.00,WeatherDisplay:10.37,2013-01-19 05:16:00,
2013-01-19 00:20:00,41.3,31.2,29.88,SW,225,10.0,22.0,67,0.00,BKN,OVC,0.00,WeatherDisplay:10.37,2013-01-19 05:20:00,
2013-01-19 00:21:00,42.3,33.9,29.84,SSW,206,7.0,13.0,72,0.00,CLR,OVC,0.00,WeatherDisplay:10.37,2013-01-19 05:21:00,
2013-01-19 00:25:00,41.3,31.1,29.88,SW,231,9.0,16.0,67,0.00,BKN,OVC,0.00,WeatherDisplay:10.37,2013-01-19 05:25:00,
2013-01-19 00:26:00,42.7,33.9,29.84,SSW,207,8.0,19.0,71,0.00,CLR,OVC,0.00,WeatherDisplay:10.37,2013-01-19 05:26:00,
2013-01-19 00:30:00,41.4,31.2,29.87,SW,235,13.0,24.0,67,0.00,BKN,OVC,0.00,WeatherDisplay:10.37,2013-01-19 05:30:00,
2013-01-19 00:31:00,43.1,34.0,29.83,SSW,207,8.0,14.0,70,0.00,CLR,OVC,0.00,WeatherDisplay:10.37,2013-01-19 05:31:00,
2013-01-19 00:35:00,41.3,31.2,29.87,WSW,238,8.0,20.0,67,0.00,BKN,OVC,0.00,WeatherDisplay:10.37,2013-01-19 05:35:00,
2013-01-19 00:36:00,43.2,33.7,29.83,SW,219,12.0,21.0,69,0.00,CLR,OVC,0.00,WeatherDisplay:10.37,2013-01-19 05:36:00,
2013-01-19 00:45:00,41.5,31.3,29.87,SW,228,10.0,20.0,67,0.00,BKN,OVC,0.00,WeatherDisplay:10.37,2013-01-19 05:45:00,
2013-01-19 00:55:00,41.3,31.2,29.87,SW,230,13.0,21.0,67,0.00,BKN,OVC,0.00,WeatherDisplay:10.37,2013-01-19 05:55:00,
2013-01-19 01:00:00,41.3,31.5,29.87,SW,229,8.0,18.0,68,0.00,BKN,OVC,0.00,WeatherDisplay:10.37,2013-01-19 06:00:00,
2013-01-19 01:05:00,41.4,31.3,29.87,SW,231,10.0,20.0,67,0.00,BKN,OVC,0.00,WeatherDisplay:10.37,2013-01-19 06:05:00,
2013-01-19 01:15:00,41.6,31.4,29.86,SW,229,9.0,24.0,67,0.00,BKN,OVC,0.00,WeatherDisplay:10.37,2013-01-19 06:15:00,
2013-01-19 01:20:00,41.5,31.4,29.86,SW,225,12.0,22.0,67,0.00,BKN,OVC,0.00,WeatherDisplay:10.37,2013-01-19 06:20:00,
2013-01-19 01:25:00,41.6,31.4,29.86,SW,231,10.0,22.0,67,0.00,BKN,OVC,0.00,WeatherDisplay:10.37,2013-01-19 06:25:00,
2013-01-19 01:30:00,41.6,31.4,29.86,SW,232,9.0,17.0,67,0.00,BKN,OVC,0.00,WeatherDisplay:10.37,2013-01-19 06:30:00,
2013-01-19 01:40:00,41.5,31.7,29.86,SW,234,10.0,20.0,68,0.00,BKN,OVC,0.00,WeatherDisplay:10.37,2013-01-19 06:40:00,
2013-01-19 01:45:00,41.4,31.6,29.86,SW,232,12.0,17.0,68,0.00,BKN,OVC,0.00,WeatherDisplay:10.37,2013-01-19 06:45:00,
2013-01-19 01:50:00,41.3,31.5,29.86,SW,233,10.0,20.0,68,0.00,BKN,OVC,0.00,WeatherDisplay:10.37,2013-01-19 06:50:00,
2013-01-19 01:55:00,41.3,31.9,29.86,SW,233,10.0,18.0,69,0.00,BKN,OVC,0.00,WeatherDisplay:10.37,2013-01-19 06:55:00,
2013-01-19 02:00:00,41.4,31.6,29.86,SW,233,10.0,23.0,68,0.00,CLR,OVC,0.00,WeatherDisplay:10.37,2013-01-19 07:00:00,
2013-01-19 02:10:00,41.4,31.6,29.86,WSW,238,8.0,22.0,68,0.00,CLR,OVC,0.00,WeatherDisplay:10.37,2013-01-19 07:10:00,
2013-01-19 02:15:00,41.4,31.7,29.87,SW,235,13.0,20.0,68,0.00,CLR,OVC,0.00,WeatherDisplay:10.37,2013-01-19 07:15:00,
2013-01-19 02:20:00,41.6,31.8,29.87,SW,234,6.0,20.0,68,0.00,CLR,OVC,0.00,WeatherDisplay:10.37,2013-01-19 07:20:00,
2013-01-19 02:25:00,41.5,31.7,29.88,WSW,237,8.0,16.0,68,0.00,CLR,OVC,0.00,WeatherDisplay:10.37,2013-01-19 07:25:00,
2013-01-19 02:30:00,41.7,31.9,29.88,SW,234,12.0,20.0,68,0.00,CLR,OVC,0.00,WeatherDisplay:10.37,2013-01-19 07:30:00,
2013-01-19 02:35:00,41.6,31.8,29.88,SW,230,9.0,17.0,68,0.00,CLR,OVC,0.00,WeatherDisplay:10.37,2013-01-19 07:35:00,
2013-01-19 02:40:00,41.6,32.2,29.88,SW,228,8.0,18.0,69,0.00,CLR,OVC,0.00,WeatherDisplay:10.37,2013-01-19 07:40:00,
2013-01-19 02:45:00,41.4,32.0,29.88,SW,226,8.0,17.0,69,0.00,CLR,OVC,0.00,WeatherDisplay:10.37,2013-01-19 07:45:00,
2013-01-19 02:50:00,41.3,32.2,29.88,SW,229,9.0,15.0,70,0.00,CLR,OVC,0.00,WeatherDisplay:10.37,2013-01-19 07:50:00,
2013-01-19 02:55:00,41.2,32.2,29.88,SW,232,8.0,17.0,70,0.00,CLR,OVC,0.00,WeatherDisplay:10.37,2013-01-19 07:55:00,
2013-01-19 03:00:00,41.2,32.2,29.88,SW,233,10.0,17.0,70,0.00,CLR,OVC,0.00,WeatherDisplay:10.37,2013-01-19 08:00:00,
2013-01-19 03:05:00,41.3,32.2,29.88,SW,230,9.0,18.0,70,0.00,CLR,OVC,0.00,WeatherDisplay:10.37,2013-01-19 08:05:00,
2013-01-19 03:10:00,41.3,32.3,29.88,SW,228,10.0,17.0,70,0.00,CLR,OVC,0.00,WeatherDisplay:10.37,2013-01-19 08:10:00,
2013-01-19 03:15:00,41.2,32.5,29.88,SW,231,9.0,15.0,71,0.00,CLR,OVC,0.00,WeatherDisplay:10.37,2013-01-19 08:15:00,
2013-01-19 03:20:00,41.1,32.4,29.88,SW,234,6.0,18.0,71,0.00,CLR,OVC,0.00,WeatherDisplay:10.37,2013-01-19 08:20:00,
2013-01-19 03:25:00,41.0,32.7,29.88,SW,231,6.0,16.0,72,0.00,CLR,OVC,0.00,WeatherDisplay:10.37,2013-01-19 08:25:00,
2013-01-19 03:30:00,40.9,32.6,29.88,SW,223,7.0,12.0,72,0.00,CLR,OVC,0.00,WeatherDisplay:10.37,2013-01-19 08:30:00,
2013-01-19 03:35:00,40.8,32.5,29.88,SW,220,7.0,16.0,72,0.00,CLR,OVC,0.00,WeatherDisplay:10.37,2013-01-19 08:35:00,
2013-01-19 03:40:00,40.8,32.8,29.88,SW,220,8.0,16.0,73,0.00,CLR,OVC,0.00,WeatherDisplay:10.37,2013-01-19 08:40:00,
2013-01-19 03:45:00,40.7,32.7,29.88,SW,222,7.0,15.0,73,0.00,CLR,OVC,0.00,WeatherDisplay:10.37,2013-01-19 08:45:00,
2013-01-19 03:50:00,40.6,32.6,29.88,SW,222,5.0,10.0,73,0.00,CLR,OVC,0.00,WeatherDisplay:10.37,2013-01-19 08:50:00,
2013-01-19 03:55:00,40.5,32.5,29.88,SW,224,6.0,12.0,73,0.00,CLR,OVC,0.00,WeatherDisplay:10.37,2013-01-19 08:55:00,
2013-01-19 04:00:00,40.4,32.8,29.88,SW,229,6.0,13.0,74,0.00,CLR,OVC,0.00,WeatherDisplay:10.37,2013-01-19 09:00:00,
2013-01-19 04:05:00,40.4,32.8,29.88,SW,226,7.0,13.0,74,0.00,CLR,OVC,0.00,WeatherDisplay:10.37,2013-01-19 09:05:00,
2013-01-19 04:10:00,40.4,32.8,29.88,SW,229,5.0,8.0,74,0.00,CLR,OVC,0.00,WeatherDisplay:10.37,2013-01-19 09:10:00,
2013-01-19 04:15:00,40.4,33.1,29.88,SW,224,7.0,12.0,75,0.00,CLR,OVC,0.00,WeatherDisplay:10.37,2013-01-19 09:15:00,
2013-01-19 04:20:00,40.4,33.1,29.88,SW,223,7.0,12.0,75,0.00,CLR,OVC,0.00,WeatherDisplay:10.37,2013-01-19 09:20:00,
2013-01-19 04:25:00,40.4,33.1,29.88,SW,226,5.0,14.0,75,0.00,CLR,OVC,0.00,WeatherDisplay:10.37,2013-01-19 09:25:00,
2013-01-19 04:30:00,40.5,33.2,29.88,SW,231,7.0,12.0,75,0.00,CLR,OVC,0.00,WeatherDisplay:10.37,2013-01-19 09:30:00,
2013-01-19 04:35:00,40.5,33.2,29.88,SW,218,7.0,12.0,75,0.00,CLR,OVC,0.00,WeatherDisplay:10.37,2013-01-19 09:35:00,
2013-01-19 04:40:00,40.5,33.2,29.88,SW,215,7.0,14.0,75,0.00,CLR,OVC,0.00,WeatherDisplay:10.37,2013-01-19 09:40:00,
2013-01-19 04:45:00,40.5,33.2,29.88,SW,221,8.0,13.0,75,0.00,CLR,OVC,0.00,WeatherDisplay:10.37,2013-01-19 09:45:00,
2013-01-19 04:50:00,40.5,33.2,29.87,SW,224,6.0,10.0,75,0.00,CLR,OVC,0.00,WeatherDisplay:10.37,2013-01-19 09:50:00,
2013-01-19 04:55:00,40.5,33.2,29.87,SW,226,7.0,12.0,75,0.00,CLR,OVC,0.00,WeatherDisplay:10.37,2013-01-19 09:55:00,
2013-01-19 05:00:00,40.5,32.9,29.88,SW,226,5.0,12.0,74,0.00,CLR,OVC,0.00,WeatherDisplay:10.37,2013-01-19 10:00:00,
2013-01-19 05:05:00,40.5,33.2,29.87,SW,222,6.0,13.0,75,0.00,CLR,OVC,0.00,WeatherDisplay:10.37,2013-01-19 10:05:00,
2013-01-19 05:15:00,40.4,33.1,29.87,SW,228,8.0,16.0,75,0.00,CLR,OVC,0.00,WeatherDisplay:10.37,2013-01-19 10:15:00,
2013-01-19 05:20:00,40.5,33.2,29.87,SW,228,7.0,12.0,75,0.00,CLR,OVC,0.00,WeatherDisplay:10.37,2013-01-19 10:20:00,
2013-01-19 05:25:00,40.4,33.1,29.87,SW,217,7.0,15.0,75,0.00,CLR,OVC,0.00,WeatherDisplay:10.37,2013-01-19 10:25:00,
2013-01-19 05:30:00,40.5,33.2,29.87,SW,222,7.0,12.0,75,0.00,CLR,OVC,0.00,WeatherDisplay:10.37,2013-01-19 10:30:00,
2013-01-19 05:40:00,40.6,33.3,29.87,SW,236,7.0,20.0,75,0.00,CLR,OVC,0.00,WeatherDisplay:10.37,2013-01-19 10:40:00,
2013-01-19 05:50:00,40.7,33.4,29.87,SW,231,9.0,16.0,75,0.00,CLR,OVC,0.00,WeatherDisplay:10.37,2013-01-19 10:50:00,
2013-01-19 06:00:00,40.7,33.4,29.87,SW,225,8.0,17.0,75,0.00,CLR,OVC,0.00,WeatherDisplay:10.37,2013-01-19 11:00:00,
2013-01-19 06:05:00,40.7,33.4,29.86,SW,231,9.0,14.0,75,0.00,CLR,OVC,0.00,WeatherDisplay:10.37,2013-01-19 11:05:00,
2013-01-19 06:10:00,40.7,33.4,29.87,SW,235,7.0,14.0,75,0.00,CLR,OVC,0.00,WeatherDisplay:10.37,2013-01-19 11:10:00,
2013-01-19 07:50:00,39.8,33.1,29.87,SW,227,5.0,13.0,77,0.00,SCT,OVC,0.00,WeatherDisplay:10.37,2013-01-19 12:50:00,
2013-01-19 07:55:00,39.7,33.1,29.87,SW,221,5.0,9.0,77,0.00,SCT,OVC,0.00,WeatherDisplay:10.37,2013-01-19 12:55:00,
2013-01-19 08:00:00,39.8,33.2,29.87,SW,215,8.0,13.0,77,0.00,BKN,OVC,0.00,WeatherDisplay:10.37,2013-01-19 13:00:00,
2013-01-19 08:05:00,39.9,33.3,29.88,SSW,212,5.0,12.0,77,0.00,BKN,OVC,0.00,WeatherDisplay:10.37,2013-01-19 13:05:00,
2013-01-19 08:10:00,39.9,33.3,29.87,SW,220,7.0,10.0,77,0.00,BKN,OVC,0.00,WeatherDisplay:10.37,2013-01-19 13:10:00,
2013-01-19 08:15:00,39.9,33.3,29.87,SW,218,5.0,8.0,77,0.00,BKN,OVC,0.00,WeatherDisplay:10.37,2013-01-19 13:15:00,
2013-01-19 08:20:00,39.9,33.3,29.87,SSW,209,6.0,9.0,77,0.00,BKN,OVC,0.00,WeatherDisplay:10.37,2013-01-19 13:20:00,
2013-01-19 08:25:00,39.8,33.2,29.87,SSW,209,7.0,12.0,77,0.00,BKN,OVC,0.00,WeatherDisplay:10.37,2013-01-19 13:25:00,
2013-01-19 08:30:00,40.0,33.4,29.87,SW,221,5.0,13.0,77,0.00,BKN,OVC,0.00,WeatherDisplay:10.37,2013-01-19 13:30:00,
2013-01-19 08:35:00,40.0,33.0,29.87,SW,218,5.0,13.0,76,0.00,BKN,OVC,0.00,WeatherDisplay:10.37,2013-01-19 13:35:00,
2013-01-19 08:40:00,40.0,33.0,29.87,SW,220,6.0,12.0,76,0.00,BKN,OVC,0.00,WeatherDisplay:10.37,2013-01-19 13:40:00,
2013-01-19 08:45:00,40.0,33.0,29.87,SW,219,7.0,10.0,76,0.00,BKN,OVC,0.00,WeatherDisplay:10.37,2013-01-19 13:45:00,
2013-01-19 08:50:00,40.0,33.0,29.88,SW,218,6.0,12.0,76,0.00,BKN,OVC,0.00,WeatherDisplay:10.37,2013-01-19 13:50:00,
2013-01-19 08:55:00,40.1,33.1,29.88,SW,223,6.0,12.0,76,0.00,BKN,OVC,0.00,WeatherDisplay:10.37,2013-01-19 13:55:00,
2013-01-19 09:00:00,40.2,33.2,29.88,SW,223,6.0,13.0,76,0.00,BKN,OVC,0.00,WeatherDisplay:10.37,2013-01-19 14:00:00,
2013-01-19 09:05:00,40.2,33.2,29.88,SW,223,5.0,8.0,76,0.00,BKN,OVC,0.00,WeatherDisplay:10.37,2013-01-19 14:05:00,
2013-01-19 09:10:00,40.2,33.2,29.88,SW,224,7.0,14.0,76,0.00,BKN,OVC,0.00,WeatherDisplay:10.37,2013-01-19 14:10:00,
2013-01-19 09:15:00,40.2,33.2,29.88,SW,218,7.0,14.0,76,0.00,BKN,OVC,0.00,WeatherDisplay:10.37,2013-01-19 14:15:00,
2013-01-19 09:20:00,40.3,33.3,29.87,SW,219,6.0,10.0,76,0.00,BKN,OVC,0.00,WeatherDisplay:10.37,2013-01-19 14:20:00,
2013-01-19 09:25:00,40.3,33.0,29.87,SW,223,7.0,12.0,75,0.00,BKN,OVC,0.00,WeatherDisplay:10.37,2013-01-19 14:25:00,
2013-01-19 09:30:00,40.4,33.1,29.87,SW,219,6.0,16.0,75,0.00,BKN,OVC,0.00,WeatherDisplay:10.37,2013-01-19 14:30:00,
2013-01-19 09:35:00,40.4,33.4,29.87,SW,215,6.0,10.0,76,0.00,BKN,OVC,0.00,WeatherDisplay:10.37,2013-01-19 14:35:00,
2013-01-19 09:40:00,40.4,33.4,29.87,SW,219,7.0,12.0,76,0.00,BKN,OVC,0.00,WeatherDisplay:10.37,2013-01-19 14:40:00,
2013-01-19 09:45:00,40.5,33.5,29.87,SW,217,5.0,18.0,76,0.00,BKN,OVC,0.00,WeatherDisplay:10.37,2013-01-19 14:45:00,
2013-01-19 09:50:00,40.5,33.5,29.87,SSW,208,6.0,10.0,76,0.00,BKN,OVC,0.00,WeatherDisplay:10.37,2013-01-19 14:50:00,
2013-01-19 09:55:00,40.6,33.6,29.87,SSW,198,9.0,13.0,76,0.00,BKN,OVC,0.00,WeatherDisplay:10.37,2013-01-19 14:55:00,
2013-01-19 10:00:00,40.7,33.7,29.86,SSW,207,8.0,16.0,76,0.00,BKN,OVC,0.00,WeatherDisplay:10.37,2013-01-19 15:00:00,
2013-01-19 10:05:00,40.8,33.5,29.87,SW,218,6.0,13.0,75,0.00,BKN,OVC,0.00,WeatherDisplay:10.37,2013-01-19 15:05:00,
2013-01-19 10:15:00,41.0,33.7,29.87,SSW,212,5.0,9.0,75,0.00,BKN,OVC,0.00,WeatherDisplay:10.37,2013-01-19 15:15:00,
2013-01-19 10:20:00,41.1,33.8,29.87,SW,214,7.0,10.0,75,0.00,BKN,OVC,0.00,WeatherDisplay:10.37,2013-01-19 15:20:00,
2013-01-19 10:25:00,41.3,33.9,29.86,SSW,206,6.0,12.0,75,0.00,BKN,OVC,0.00,WeatherDisplay:10.37,2013-01-19 15:25:00,
2013-01-19 10:30:00,41.4,33.7,29.86,SSW,206,5.0,12.0,74,0.00,BKN,OVC,0.00,WeatherDisplay:10.37,2013-01-19 15:30:00,
2013-01-19 10:35:00,41.5,33.8,29.86,SSW,212,6.0,12.0,74,0.00,BKN,OVC,0.00,WeatherDisplay:10.37,2013-01-19 15:35:00,
2013-01-19 11:45:00,43.2,33.7,29.82,SSW,209,7.0,14.0,69,0.00,BKN,OVC,0.00,WeatherDisplay:10.37,2013-01-19 16:45:00,
2013-01-19 11:50:00,43.2,33.7,29.81,SSW,213,9.0,15.0,69,0.00,BKN,OVC,0.00,WeatherDisplay:10.37,2013-01-19 16:50:00,
2013-01-19 11:55:00,43.2,33.7,29.81,SW,224,7.0,18.0,69,0.00,BKN,OVC,0.00,WeatherDisplay:10.37,2013-01-19 16:55:00,
2013-01-19 12:00:00,43.2,33.7,29.81,SW,227,3.0,12.0,69,0.00,BKN,OVC,0.00,WeatherDisplay:10.37,2013-01-19 17:00:00,
2013-01-19 12:05:00,43.3,33.8,29.80,SSW,209,7.0,12.0,69,0.00,BKN,OVC,0.00,WeatherDisplay:10.37,2013-01-19 17:05:00,
2013-01-19 12:20:00,42.9,33.4,29.79,SSW,211,9.0,15.0,69,0.00,BKN,OVC,0.00,WeatherDisplay:10.37,2013-01-19 17:20:00,
2013-01-19 12:25:00,42.9,33.8,29.79,SSW,208,6.0,15.0,70,0.00,BKN,OVC,0.00,WeatherDisplay:10.37,2013-01-19 17:25:00,
2013-01-19 12:35:00,42.8,33.4,29.78,SSW,212,7.0,20.0,69,0.00,BKN,OVC,0.00,WeatherDisplay:10.37,2013-01-19 17:35:00,
2013-01-19 12:40:00,42.9,33.0,29.78,SW,214,7.0,16.0,68,0.00,BKN,OVC,0.00,WeatherDisplay:10.37,2013-01-19 17:40:00,
2013-01-19 12:45:00,42.7,32.9,29.78,SW,219,9.0,16.0,68,0.00,BKN,OVC,0.00,WeatherDisplay:10.37,2013-01-19 17:45:00,
2013-01-19 12:55:00,42.6,32.8,29.77,SSW,203,10.0,17.0,68,0.00,BKN,OVC,0.00,WeatherDisplay:10.37,2013-01-19 17:55:00,
2013-01-19 13:00:00,42.6,32.4,29.76,SW,215,8.0,15.0,67,0.00,BKN,OVC,0.00,WeatherDisplay:10.37,2013-01-19 18:00:00,
2013-01-19 13:05:00,42.6,32.8,29.76,SW,215,7.0,17.0,68,0.00,BKN,OVC,0.00,WeatherDisplay:10.37,2013-01-19 18:05:00,
2013-01-19 13:10:00,42.6,32.4,29.76,SW,225,9.0,16.0,67,0.00,BKN,OVC,0.00,WeatherDisplay:10.37,2013-01-19 18:10:00,
2013-01-19 13:20:00,42.7,32.5,29.75,SW,216,8.0,17.0,67,0.00,BKN,OVC,0.00,WeatherDisplay:10.37,2013-01-19 18:20:00,
2013-01-19 13:30:00,42.7,32.9,29.74,SW,214,8.0,17.0,68,0.00,BKN,OVC,0.00,WeatherDisplay:10.37,2013-01-19 18:30:00,
2013-01-19 13:40:00,42.7,32.9,29.74,SW,219,10.0,22.0,68,0.00,BKN,OVC,0.00,WeatherDisplay:10.37,2013-01-19 18:40:00,
2013-01-19 13:45:00,42.7,32.8,29.73,SW,215,12.0,18.0,68,0.00,BKN,OVC,0.00,WeatherDisplay:10.37,2013-01-19 18:45:00,
2013-01-19 13:50:00,42.6,32.8,29.73,SSW,208,13.0,29.0,68,0.00,BKN,OVC,0.00,WeatherDisplay:10.37,2013-01-19 18:50:00,
2013-01-19 14:00:00,42.5,32.7,29.71,SSW,209,10.0,15.0,68,0.00,BKN,OVC,0.00,WeatherDisplay:10.37,2013-01-19 19:00:00,
2013-01-19 14:05:00,42.4,32.6,29.72,SSW,201,7.0,16.0,68,0.00,BKN,OVC,0.00,WeatherDisplay:10.37,2013-01-19 19:05:00,
2013-01-19 14:10:00,42.4,32.9,29.72,SSW,211,7.0,15.0,69,0.00,BKN,OVC,0.00,WeatherDisplay:10.37,2013-01-19 19:10:00,
2013-01-19 14:15:00,42.5,33.0,29.73,SW,223,6.0,14.0,69,0.00,BKN,OVC,0.00,WeatherDisplay:10.37,2013-01-19 19:15:00,
2013-01-19 14:20:00,42.5,33.0,29.72,SW,219,7.0,17.0,69,0.00,BKN,OVC,0.00,WeatherDisplay:10.37,2013-01-19 19:20:00,
2013-01-19 14:25:00,42.5,33.0,29.71,SW,215,8.0,17.0,69,0.00,BKN,OVC,0.00,WeatherDisplay:10.37,2013-01-19 19:25:00,
2013-01-19 14:30:00,42.5,33.0,29.71,SW,217,6.0,17.0,69,0.00,BKN,OVC,0.00,WeatherDisplay:10.37,2013-01-19 19:30:00,
2013-01-19 14:40:00,42.5,33.0,29.71,SW,227,7.0,12.0,69,0.00,BKN,OVC,0.00,WeatherDisplay:10.37,2013-01-19 19:40:00,
2013-01-19 14:45:00,42.6,33.1,29.72,SW,229,10.0,18.0,69,0.00,BKN,OVC,0.00,WeatherDisplay:10.37,2013-01-19 19:45:00,
2013-01-19 14:50:00,42.6,33.2,29.71,SW,229,5.0,13.0,69,0.00,BKN,OVC,0.00,WeatherDisplay:10.37,2013-01-19 19:50:00,
2013-01-19 15:00:00,42.6,33.2,29.69,SW,214,6.0,13.0,69,0.00,BKN,OVC,0.00,WeatherDisplay:10.37,2013-01-19 20:00:00,
2013-01-19 15:05:00,42.7,33.2,29.69,SSW,211,8.0,15.0,69,0.00,BKN,OVC,0.00,WeatherDisplay:10.37,2013-01-19 20:05:00,
2013-01-19 15:25:00,43.2,33.4,29.69,SSW,212,8.0,12.0,68,0.00,BKN,OVC,0.00,WeatherDisplay:10.37,2013-01-19 20:25:00,
2013-01-19 15:30:00,43.3,33.1,29.68,SSW,206,6.0,10.0,67,0.00,BKN,OVC,0.00,WeatherDisplay:10.37,2013-01-19 20:30:00,
2013-01-19 15:35:00,43.4,33.2,29.68,SSW,209,3.0,12.0,67,0.00,BKN,OVC,0.00,WeatherDisplay:10.37,2013-01-19 20:35:00,
2013-01-19 15:40:00,43.6,33.4,29.67,SSW,213,6.0,10.0,67,0.00,BKN,OVC,0.00,WeatherDisplay:10.37,2013-01-19 20:40:00,
2013-01-19 15:50:00,43.7,33.5,29.67,SW,215,6.0,9.0,67,0.00,BKN,OVC,0.00,WeatherDisplay:10.37,2013-01-19 20:50:00,
2013-01-19 15:55:00,43.8,33.6,29.67,SSW,213,3.0,13.0,67,0.00,BKN,OVC,0.00,WeatherDisplay:10.37,2013-01-19 20:55:00,
2013-01-19 16:05:00,44.0,33.7,29.67,SW,219,8.0,13.0,67,0.00,BKN,OVC,0.00,WeatherDisplay:10.37,2013-01-19 21:05:00,
2013-01-19 16:10:00,44.1,33.8,29.68,SW,222,9.0,13.0,67,0.00,BKN,OVC,0.00,WeatherDisplay:10.37,2013-01-19 21:10:00,
2013-01-19 16:15:00,44.2,33.9,29.68,SW,215,5.0,9.0,67,0.00,BKN,OVC,0.00,WeatherDisplay:10.37,2013-01-19 21:15:00,
2013-01-19 16:30:00,44.4,33.8,29.67,SW,223,8.0,16.0,66,0.00,BKN,OVC,0.00,WeatherDisplay:10.37,2013-01-19 21:30:00,
2013-01-19 16:35:00,44.5,33.9,29.67,SW,228,12.0,20.0,66,0.00,BKN,OVC,0.00,WeatherDisplay:10.37,2013-01-19 21:35:00,
2013-01-19 16:45:00,44.8,34.1,29.67,SW,222,6.0,18.0,66,0.00,BKN,OVC,0.00,WeatherDisplay:10.37,2013-01-19 21:45:00,
2013-01-19 16:50:00,44.9,34.2,29.66,SW,227,9.0,20.0,66,0.00,BKN,OVC,0.00,WeatherDisplay:10.37,2013-01-19 21:50:00,
2013-01-19 17:00:00,44.9,34.3,29.68,SW,227,8.0,20.0,66,0.00,OVC,OVC,0.00,WeatherDisplay:10.37,2013-01-19 22:00:00,
2013-01-19 17:10:00,44.6,34.7,29.68,SW,215,9.0,18.0,68,0.00,OVC,OVC,0.00,WeatherDisplay:10.37,2013-01-19 22:10:00,
2013-01-19 17:20:00,44.3,34.7,29.66,SW,215,10.0,17.0,69,0.00,OVC,OVC,0.00,WeatherDisplay:10.37,2013-01-19 22:20:00,
2013-01-19 17:25:00,44.1,34.6,29.66,SW,216,10.0,20.0,69,0.00,OVC,OVC,0.00,WeatherDisplay:10.37,2013-01-19 22:25:00,
2013-01-19 17:30:00,44.2,35.0,29.66,SW,225,10.0,20.0,70,0.00,OVC,OVC,0.00,WeatherDisplay:10.37,2013-01-19 22:30:00,
2013-01-19 17:40:00,44.1,34.9,29.66,SW,222,8.0,17.0,70,0.00,OVC,OVC,0.00,WeatherDisplay:10.37,2013-01-19 22:40:00,
2013-01-19 17:50:00,44.0,35.2,29.65,SW,225,13.0,20.0,71,0.00,OVC,OVC,0.00,WeatherDisplay:10.37,2013-01-19 22:50:00,
2013-01-19 18:00:00,44.1,35.3,29.65,SW,218,10.0,23.0,71,0.00,OVC,OVC,0.00,WeatherDisplay:10.37,2013-01-19 23:00:00,
2013-01-19 18:05:00,44.2,35.4,29.65,SW,221,9.0,22.0,71,0.00,OVC,OVC,0.00,WeatherDisplay:10.37,2013-01-19 23:05:00,
2013-01-19 18:10:00,44.2,35.4,29.65,SW,226,8.0,16.0,71,0.00,OVC,OVC,0.00,WeatherDisplay:10.37,2013-01-19 23:10:00,
2013-01-19 18:20:00,44.2,35.4,29.65,SW,222,8.0,17.0,71,0.00,OVC,OVC,0.00,WeatherDisplay:10.37,2013-01-19 23:20:00,
2013-01-19 18:25:00,44.2,35.4,29.65,SW,224,9.0,15.0,71,0.00,OVC,OVC,0.00,WeatherDisplay:10.37,2013-01-19 23:25:00,
2013-01-19 18:45:00,44.5,35.7,29.66,SW,235,9.0,20.0,71,0.00,OVC,OVC,0.00,WeatherDisplay:10.37,2013-01-19 23:45:00,
2013-01-19 18:50:00,44.5,36.0,29.66,SW,227,13.0,23.0,72,0.00,OVC,OVC,0.00,WeatherDisplay:10.37,2013-01-19 23:50:00,
2013-01-19 19:05:00,44.3,36.2,29.65,SW,218,8.0,18.0,73,0.00,BKN,OVC,0.00,WeatherDisplay:10.37,2013-01-20 00:05:00,
2013-01-19 19:15:00,44.2,36.5,29.64,SW,228,6.0,12.0,74,0.00,BKN,OVC,0.00,WeatherDisplay:10.37,2013-01-20 00:15:00,
2013-01-19 19:20:00,44.2,36.4,29.63,SW,229,9.0,22.0,74,0.00,BKN,OVC,0.00,WeatherDisplay:10.37,2013-01-20 00:20:00,
2013-01-19 19:25:00,44.2,36.4,29.64,SW,227,8.0,20.0,74,0.00,BKN,OVC,0.00,WeatherDisplay:10.37,2013-01-20 00:25:00,
2013-01-19 19:30:00,44.2,36.4,29.63,SW,227,8.0,15.0,74,0.00,BKN,OVC,0.00,WeatherDisplay:10.37,2013-01-20 00:30:00,
2013-01-19 19:35:00,44.2,36.4,29.63,SW,227,8.0,15.0,74,0.00,BKN,OVC,0.00,WeatherDisplay:10.37,2013-01-20 00:35:00,
2013-01-19 19:40:00,44.2,36.4,29.63,SW,225,9.0,20.0,74,0.00,BKN,OVC,0.00,WeatherDisplay:10.37,2013-01-20 00:40:00,
2013-01-19 19:45:00,44.1,36.7,29.62,SW,223,12.0,20.0,75,0.00,BKN,OVC,0.00,WeatherDisplay:10.37,2013-01-20 00:45:00,
2013-01-19 19:50:00,44.1,36.7,29.62,SW,232,9.0,15.0,75,0.00,BKN,OVC,0.00,WeatherDisplay:10.37,2013-01-20 00:50:00,
2013-01-19 19:55:00,44.0,36.6,29.63,WSW,237,10.0,15.0,75,0.00,BKN,OVC,0.00,WeatherDisplay:10.37,2013-01-20 00:55:00,
2013-01-19 20:05:00,44.0,36.9,29.62,SW,229,6.0,12.0,76,0.00,OVC,OVC,0.00,WeatherDisplay:10.37,2013-01-20 01:05:00,
2013-01-19 20:10:00,43.9,36.8,29.62,SW,234,8.0,16.0,76,0.00,OVC,OVC,0.00,WeatherDisplay:10.37,2013-01-20 01:10:00,
2013-01-19 20:15:00,43.8,37.1,29.62,SW,235,9.0,14.0,77,0.00,OVC,OVC,0.00,WeatherDisplay:10.37,2013-01-20 01:15:00,
2013-01-19 20:20:00,43.8,37.1,29.61,SW,235,8.0,25.0,77,0.00,OVC,OVC,0.00,WeatherDisplay:10.37,2013-01-20 01:20:00,
2013-01-19 20:25:00,43.8,37.1,29.61,SW,235,7.0,17.0,77,0.00,OVC,OVC,0.00,WeatherDisplay:10.37,2013-01-20 01:25:00,
2013-01-19 20:30:00,43.8,37.1,29.61,SW,232,9.0,23.0,77,0.00,OVC,OVC,0.00,WeatherDisplay:10.37,2013-01-20 01:30:00,
2013-01-19 20:35:00,43.7,37.0,29.61,WSW,237,7.0,15.0,77,0.00,OVC,OVC,0.00,WeatherDisplay:10.37,2013-01-20 01:35:00,
2013-01-19 20:40:00,43.8,37.1,29.60,WSW,241,6.0,15.0,77,0.00,OVC,OVC,0.00,WeatherDisplay:10.37,2013-01-20 01:40:00,
2013-01-19 20:45:00,43.7,37.0,29.60,WSW,238,5.0,12.0,77,0.00,OVC,OVC,0.00,WeatherDisplay:10.37,2013-01-20 01:45:00,
2013-01-19 20:55:00,43.8,36.7,29.60,SW,235,8.0,18.0,76,0.00,OVC,OVC,0.00,WeatherDisplay:10.37,2013-01-20 01:55:00,
2013-01-19 21:00:00,43.9,36.8,29.59,WSW,242,8.0,13.0,76,0.00,OVC,OVC,0.00,WeatherDisplay:10.37,2013-01-20 02:00:00,
2013-01-19 21:05:00,43.9,36.5,29.59,WSW,244,7.0,16.0,75,0.00,OVC,OVC,0.00,WeatherDisplay:10.37,2013-01-20 02:05:00,
2013-01-19 21:15:00,44.2,36.4,29.59,WSW,240,7.0,12.0,74,0.00,OVC,OVC,0.00,WeatherDisplay:10.37,2013-01-20 02:15:00,
2013-01-19 21:20:00,44.3,36.5,29.59,WSW,243,8.0,20.0,74,0.00,OVC,OVC,0.00,WeatherDisplay:10.37,2013-01-20 02:20:00,
2013-01-19 21:30:00,44.4,36.3,29.59,WSW,250,8.0,17.0,73,0.00,OVC,OVC,0.00,WeatherDisplay:10.37,2013-01-20 02:30:00,
2013-01-19 21:35:00,44.4,35.9,29.59,WSW,249,7.0,17.0,72,0.00,OVC,OVC,0.00,WeatherDisplay:10.37,2013-01-20 02:35:00,
2013-01-19 21:40:00,44.6,35.8,29.58,WSW,244,9.0,18.0,71,0.00,OVC,OVC,0.00,WeatherDisplay:10.37,2013-01-20 02:40:00,
2013-01-19 21:45:00,44.7,35.5,29.58,WSW,247,7.0,20.0,70,0.00,OVC,OVC,0.00,WeatherDisplay:10.37,2013-01-20 02:45:00,
2013-01-19 21:50:00,44.7,35.1,29.58,WSW,252,8.0,22.0,69,0.00,OVC,OVC,0.00,WeatherDisplay:10.37,2013-01-20 02:50:00,
2013-01-19 22:00:00,44.4,34.5,29.58,WSW,252,7.0,23.0,68,0.00,OVC,OVC,0.00,WeatherDisplay:10.37,2013-01-20 03:00:00,
2013-01-19 22:05:00,44.0,34.5,29.58,WSW,254,9.0,20.0,69,0.00,OVC,OVC,0.00,WeatherDisplay:10.37,2013-01-20 03:05:00,
2013-01-19 22:15:00,43.6,34.5,29.58,WSW,251,8.0,16.0,70,0.00,OVC,OVC,0.00,WeatherDisplay:10.37,2013-01-20 03:15:00,
2013-01-19 22:20:00,43.5,34.8,29.58,WSW,248,12.0,22.0,71,0.00,OVC,OVC,0.00,WeatherDisplay:10.37,2013-01-20 03:20:00,
2013-01-19 22:25:00,43.4,34.6,29.58,WSW,245,9.0,20.0,71,0.00,OVC,OVC,0.00,WeatherDisplay:10.37,2013-01-20 03:25:00,
2013-01-19 22:30:00,43.4,33.2,29.58,WSW,251,9.0,23.0,67,0.00,OVC,OVC,0.00,WeatherDisplay:10.37,2013-01-20 03:30:00,
2013-01-19 22:35:00,43.4,32.8,29.58,WSW,251,13.0,20.0,66,0.00,OVC,OVC,0.00,WeatherDisplay:10.37,2013-01-20 03:35:00,
2013-01-19 22:50:00,42.5,31.6,29.58,West,267,8.0,20.0,65,0.00,OVC,OVC,0.00,WeatherDisplay:10.37,2013-01-20 03:50:00,
2013-01-19 22:55:00,42.2,31.3,29.58,West,270,12.0,23.0,65,0.00,OVC,OVC,0.00,WeatherDisplay:10.37,2013-01-20 03:55:00,
2013-01-19 23:00:00,41.9,29.8,29.59,West,260,14.0,30.0,62,0.00,OVC,OVC,0.00,WeatherDisplay:10.37,2013-01-20 04:00:00,
2013-01-19 23:05:00,41.8,28.9,29.59,West,264,14.0,25.0,60,0.00,OVC,OVC,0.00,WeatherDisplay:10.37,2013-01-20 04:05:00,
2013-01-19 23:10:00,41.6,28.3,29.59,West,267,8.0,20.0,59,0.00,OVC,OVC,0.00,WeatherDisplay:10.37,2013-01-20 04:10:00,
2013-01-19 23:15:00,41.5,27.8,29.59,West,263,9.0,20.0,58,0.00,OVC,OVC,0.00,WeatherDisplay:10.37,2013-01-20 04:15:00,
2013-01-19 23:20:00,41.5,26.5,29.58,West,264,8.0,18.0,55,0.00,OVC,OVC,0.00,WeatherDisplay:10.37,2013-01-20 04:20:00,
2013-01-19 23:25:00,41.5,26.1,29.59,WSW,258,9.0,24.0,54,0.00,OVC,OVC,0.00,WeatherDisplay:10.37,2013-01-20 04:25:00,
2013-01-19 23:35:00,41.4,26.4,29.59,WSW,256,9.0,21.0,55,0.00,OVC,OVC,0.00,WeatherDisplay:10.37,2013-01-20 04:35:00,
2013-01-19 23:40:00,41.1,24.3,29.59,West,262,16.0,29.0,51,0.00,OVC,OVC,0.00,WeatherDisplay:10.37,2013-01-20 04:40:00,
2013-01-19 23:45:00,40.6,22.9,29.60,West,270,17.0,29.0,49,0.00,OVC,OVC,0.00,WeatherDisplay:10.37,2013-01-20 04:45:00,
2013-01-19 23:50:00,39.7,20.6,29.60,West,267,13.0,37.0,46,0.00,OVC,OVC,0.00,WeatherDisplay:10.37,2013-01-20 04:50:00,
2013-01-19 23:55:00,38.9,21.8,29.61,West,267,17.0,33.0,50,0.00,OVC,OVC,0.00,WeatherDisplay:10.37,2013-01-20 04:55:00,